Back to catalog

BREEZE-M DEB

AliveHEO
NORAD 32499·DEBRIS·🇷🇺 Russia

Launched Feb 28, 2006 from Baikonur Cosmodrome

Loading…

Next Passes (next 24 hours)

TLE

FreshSource: Space-Track

Epoch: Sep 14, 2026, 06:34 UTC

1 32499U 06006AN  26257.27429476  .00001269  00000-0  68221-3 0  9992
2 32499  51.6326 258.4655 4691594 129.6832 282.1865  6.02147434 31115

Track BREEZE-M DEB in real time with AllMySat

Download on the App Store